Ryouei Maru — JL6703 — position and weather

sailwx.info

Track history (hours):
 
Tides and Currents Weather Stations Pressure Air Temp Water Temp Dewpoint Dewpoint Depression Visibility Wind Speed Wind Dir Waves Ship Positions

Ryouei Maru

Last reported at 2014-Oct-25 13:10 UTC. Time now 2014-Oct-26 04:29 UTC.
Position N 34°03' E 134°60'.

Length 95 m; draft 5 m.

Type: Cargo ship. MMSI: 431501749.

Date/timePositionNaut miles runAvg speedWind from/ knotsBaromVisibWave heightAir tempDewpointWater temp
2014-Oct-25 13:10N 34°03' E 134°60'813.1
2014-Oct-25 12:33N 34°11' E 134°59'1312.4
2014-Oct-25 11:31N 34°24' E 135°01'1313.1
2014-Oct-25 10:33N 34°31' E 135°13'1211.8
2014-Oct-25 09:33N 34°37' E 135°25'0 0.4
2014-Oct-25 08:31N 34°37' E 135°26'0 0.0
2014-Oct-25 07:25N 34°37' E 135°26'0 0.0
2014-Oct-25 06:31N 34°37' E 135°26'0 0.0
2014-Oct-25 05:31N 34°37' E 135°26'0 0.0
2014-Oct-25 02:25N 34°37' E 135°26'0 0.0
2014-Oct-25 01:31N 34°37' E 135°26'0 0.0
2014-Oct-24 22:31N 34°37' E 135°26'5 5.1
2014-Oct-24 21:33N 34°36' E 135°20'1 1.5
2014-Oct-24 20:33N 34°35' E 135°18'0 0.0
2014-Oct-24 19:33N 34°35' E 135°18'1 0.8
2014-Oct-24 18:33N 34°34' E 135°17'1212.0
2014-Oct-24 17:33N 34°25' E 135°08'1111.1
2014-Oct-24 16:31N 34°16' E 134°59'1111.8
2014-Oct-24 15:33N 34°05' E 135°00'  
2014-Oct-19 14:05N 33°58' E 134°60'713.6
2014-Oct-19 13:33N 34°05' E 134°59'1413.7
2014-Oct-19 12:33N 34°19' E 134°59'1313.1
2014-Oct-19 11:33N 34°29' E 135°09'1313.0
2014-Oct-19 10:33N 34°37' E 135°21'4 3.8
2014-Oct-19 09:33N 34°37' E 135°26'0 0.0
2014-Oct-19 08:33N 34°37' E 135°26'0 0.0
2014-Oct-19 07:33N 34°37' E 135°26'0 0.0
2014-Oct-19 06:27N 34°37' E 135°26'0 0.0
2014-Oct-19 05:33N 34°37' E 135°26'0 0.0
2014-Oct-19 00:33N 34°37' E 135°26'0 0.0
2014-Oct-18 23:09N 34°37' E 135°26'0 0.1
2014-Oct-18 22:33N 34°37' E 135°26'6 5.9
2014-Oct-18 21:33N 34°35' E 135°19'1 0.8
2014-Oct-18 20:31N 34°35' E 135°18'0 0.0
2014-Oct-18 19:31N 34°35' E 135°18'0 0.0
2014-Oct-18 18:31N 34°35' E 135°18'0 0.0
2014-Oct-18 17:31N 34°35' E 135°18'0 0.0
2014-Oct-18 16:25N 34°35' E 135°18'0 0.0
2014-Oct-18 15:31N 34°35' E 135°18'6 6.2
2014-Oct-18 14:33N 34°30' E 135°13'1312.0
2014-Oct-18 13:28N 34°20' E 135°03'1211.2
2014-Oct-18 12:24N 34°09' E 134°60'1112.6
2014-Oct-18 11:32N 33°58' E 135°01'  
Track history (hours):
 
Tides and Currents Weather Stations Pressure Air Temp Water Temp Dewpoint Dewpoint Depression Visibility Wind Speed Wind Dir Waves Ship Positions

Ryouei Maru

Last reported at 2014-Oct-25 13:10 UTC. Time now 2014-Oct-26 04:29 UTC.
Position N 34°03' E 134°60'.

Length 95 m; draft 5 m.

Type: Cargo ship. MMSI: 431501749.

Date/timePositionNaut miles runAvg speedWind from/ knotsBaromVisibWave heightAir tempDewpointWater temp
2014-Oct-25 13:10N 34°03' E 134°60'813.1
2014-Oct-25 12:33N 34°11' E 134°59'1312.4
2014-Oct-25 11:31N 34°24' E 135°01'1313.1
2014-Oct-25 10:33N 34°31' E 135°13'1211.8
2014-Oct-25 09:33N 34°37' E 135°25'0 0.4
2014-Oct-25 08:31N 34°37' E 135°26'0 0.0
2014-Oct-25 07:25N 34°37' E 135°26'0 0.0
2014-Oct-25 06:31N 34°37' E 135°26'0 0.0
2014-Oct-25 05:31N 34°37' E 135°26'0 0.0
2014-Oct-25 02:25N 34°37' E 135°26'0 0.0
2014-Oct-25 01:31N 34°37' E 135°26'0 0.0
2014-Oct-24 22:31N 34°37' E 135°26'5 5.1
2014-Oct-24 21:33N 34°36' E 135°20'1 1.5
2014-Oct-24 20:33N 34°35' E 135°18'0 0.0
2014-Oct-24 19:33N 34°35' E 135°18'1 0.8
2014-Oct-24 18:33N 34°34' E 135°17'1212.0
2014-Oct-24 17:33N 34°25' E 135°08'1111.1
2014-Oct-24 16:31N 34°16' E 134°59'1111.8
2014-Oct-24 15:33N 34°05' E 135°00'  
2014-Oct-19 14:05N 33°58' E 134°60'713.6
2014-Oct-19 13:33N 34°05' E 134°59'1413.7
2014-Oct-19 12:33N 34°19' E 134°59'1313.1
2014-Oct-19 11:33N 34°29' E 135°09'1313.0
2014-Oct-19 10:33N 34°37' E 135°21'4 3.8
2014-Oct-19 09:33N 34°37' E 135°26'0 0.0
2014-Oct-19 08:33N 34°37' E 135°26'0 0.0
2014-Oct-19 07:33N 34°37' E 135°26'0 0.0
2014-Oct-19 06:27N 34°37' E 135°26'0 0.0
2014-Oct-19 05:33N 34°37' E 135°26'0 0.0
2014-Oct-19 00:33N 34°37' E 135°26'0 0.0
2014-Oct-18 23:09N 34°37' E 135°26'0 0.1
2014-Oct-18 22:33N 34°37' E 135°26'6 5.9
2014-Oct-18 21:33N 34°35' E 135°19'1 0.8
2014-Oct-18 20:31N 34°35' E 135°18'0 0.0
2014-Oct-18 19:31N 34°35' E 135°18'0 0.0
2014-Oct-18 18:31N 34°35' E 135°18'0 0.0
2014-Oct-18 17:31N 34°35' E 135°18'0 0.0
2014-Oct-18 16:25N 34°35' E 135°18'0 0.0
2014-Oct-18 15:31N 34°35' E 135°18'6 6.2
2014-Oct-18 14:33N 34°30' E 135°13'1312.0
2014-Oct-18 13:28N 34°20' E 135°03'1211.2
2014-Oct-18 12:24N 34°09' E 134°60'1112.6
2014-Oct-18 11:32N 33°58' E 135°01'  

Dump ship's entire track history